(2) Pallas
ephemeris date magn radius delta ra dec elong phase
Today1 Jul 20259.73.409 AU2.699 AU21h00m+17°17'126.9°13.8°
Opposition7 Aug 20259.43.404 AU2.503 AU20h33m+14°41'147.7°9.2°
(2) Pallas - 2025-07-01
astro.vanbuitenen.nl


 
-1 year
-1 month
-1 day
Now
+1 day
+1 month
+1 year

The interactive orbit chart above shows the body's path through the solar system and its position at the given date. Green and blue lines are shown perpendicular to the ecliptic plane: Green if the path is above the ecliptic plane, blue if it is below. (Left-click and drag to rotate the view; Right-click and drag to move the view; Use scroll wheel to zoom in our out.)

The orbital elements of Pallas are:

            e (Eccentricity)                : 0.2305404
            a (Semimajor axis)              : 2.7701937
            i (Inclination)                 : 34.92402
            Ω (Longitude of ascending node) : 172.89530
            ω (Argument of perihelion)      : 310.91037
            M (Mean anomaly)                : 168.79869
            Epoch                           : 2025 May 05

            L (Longitude of perihelion)     : 129.47918
            B (Latitude of perihelion)      : -25.63588
            P (Orbital period in years)     : 4.61            
        

The light curve chart below shows the estimated development of the minor planet's magnitude.


The all-sky chart below shows the path of the minor planet over the same period as the light curve. The current position is marked yellow.





The following chart shows the path of the minor planet in the next few days. The field of view is optimized for (~10x50) binoculars and finderscopes. A more printer-friendly version of the same chart can be found below.




Ephemerides:
Date       Time       RA (2000)    DEC (2000)    delta   radius  elong  phase   PA    magn
2025-07-01 00:00 UT   21 00 10.8   +17 17 37     2.699    3.409  126.9   13.8   222    9.7 
2025-07-01 03:13 UT   21 00 06.8   +17 17 39     2.698    3.409  127.1   13.8   221    9.7 
2025-07-02 00:00 UT   20 59 40.4   +17 17 48     2.690    3.409  127.7   13.6   221    9.7 
2025-07-03 00:00 UT   20 59 09.1   +17 17 47     2.682    3.409  128.5   13.5   220    9.7 
2025-07-04 00:00 UT   20 58 36.7   +17 17 32     2.673    3.409  129.3   13.4   219    9.7 
2025-07-05 00:00 UT   20 58 03.5   +17 17 04     2.665    3.409  130.0   13.2   218    9.7 
2025-07-06 00:00 UT   20 57 29.4   +17 16 22     2.656    3.409  130.8   13.1   217    9.7 
2025-07-07 00:00 UT   20 56 54.3   +17 15 27     2.648    3.409  131.5   12.9   216    9.6 
2025-07-08 00:00 UT   20 56 18.5   +17 14 17     2.640    3.408  132.3   12.7   215    9.6 
2025-07-09 00:00 UT   20 55 41.7   +17 12 54     2.633    3.408  133.0   12.6   213    9.6 
2025-07-10 00:00 UT   20 55 04.2   +17 11 16     2.625    3.408  133.8   12.4   212    9.6 
2025-07-11 00:00 UT   20 54 25.9   +17 09 24     2.618    3.408  134.5   12.3   211    9.6 
2025-07-12 00:00 UT   20 53 46.8   +17 07 17     2.611    3.408  135.2   12.1   210    9.6 
2025-07-13 00:00 UT   20 53 07.0   +17 04 56     2.604    3.408  135.9   12.0   209    9.6 
2025-07-14 00:00 UT   20 52 26.5   +17 02 20     2.597    3.408  136.6   11.8   207    9.6 
2025-07-15 00:00 UT   20 51 45.3   +16 59 30     2.590    3.408  137.3   11.7   206    9.6 
2025-07-16 00:00 UT   20 51 03.4   +16 56 24     2.584    3.408  138.0   11.5   205    9.5 
2025-07-17 00:00 UT   20 50 20.9   +16 53 04     2.578    3.408  138.6   11.4   203    9.5 
2025-07-18 00:00 UT   20 49 37.8   +16 49 29     2.572    3.407  139.3   11.2   202    9.5 
2025-07-19 00:00 UT   20 48 54.2   +16 45 38     2.566    3.407  139.9   11.1   201    9.5 
2025-07-20 00:00 UT   20 48 10.1   +16 41 32     2.561    3.407  140.5   10.9   199    9.5 
2025-07-21 00:00 UT   20 47 25.4   +16 37 11     2.556    3.407  141.1   10.8   197    9.5 
2025-07-22 00:00 UT   20 46 40.3   +16 32 35     2.551    3.407  141.7   10.6   196    9.5 
2025-07-23 00:00 UT   20 45 54.9   +16 27 44     2.546    3.407  142.3   10.5   194    9.5 
2025-07-24 00:00 UT   20 45 09.0   +16 22 37     2.541    3.407  142.8   10.4   193    9.5 
2025-07-25 00:00 UT   20 44 22.8   +16 17 15     2.537    3.406  143.4   10.2   191    9.5 
2025-07-26 00:00 UT   20 43 36.3   +16 11 38     2.533    3.406  143.9   10.1   189    9.4 
2025-07-27 00:00 UT   20 42 49.6   +16 05 46     2.529    3.406  144.3   10.0   187    9.4 
2025-07-28 00:00 UT   20 42 02.7   +15 59 40     2.525    3.406  144.8    9.9   185    9.4 
2025-07-29 00:00 UT   20 41 15.6   +15 53 18     2.522    3.406  145.2    9.8   184    9.4 
2025-07-30 00:00 UT   20 40 28.4   +15 46 42     2.519    3.406  145.6    9.7   182    9.4 
2025-07-31 00:00 UT   20 39 41.1   +15 39 51     2.516    3.405  146.0    9.6   180    9.4 


    Terminology:
            
    delta:  distance between minor planet and earth in AU
    radius: distance between minor planet and sun in AU
    magn:   magnitude (brightness) estimate    
    ra:     right ascension in hours (24h = 360deg)
    dec:    declination in degrees
    elong:  elongation in degrees (angle sun-earth-minor planet)    
    phase:  phase angle in degrees (angle sun-minor planet-earth)        
    AU:     Astronomical Unit (mean distance between earth and sun: 149597870.7 km
    

Orbital elements provided by the MPC (Minor Planet Center).
Calculations by a modified version of AAPlus, a C# implementation of the AA+ project by PJ Naughter from the algorithms presented in the book "Astronomical Algorithms" by Jean Meeus.
NGC2000 dso catalog and star labels from VizieR as provided by the Strasbourg astronomical Data Center.
Tycho2 catalog from the ESO archive.